Location: Sperry Observatory
(40.6664°N, 74.3236°W)
Time: 21:50:59
(UTC-05:00)

UOSAT-12 - Visible Passes

Search period start: 05 December 2016 00:00
Search period end: 15 December 2016 00:00
Orbit: 616 x 638 km, 64.6° (Epoch: 05 December)

Date Brightness Start Highest point End Pass type
(mag) Time Alt. Az. Time Alt. Az. Time Alt. Az.
05 Dec 9.6 04:02:06 16° NE 04:02:06 16° NE 04:04:40 10° E visible
05 Dec 7.0 05:39:26 22° NW 05:42:22 75° WSW 05:46:57 10° SSE visible
06 Dec 8.7 04:22:02 29° NE 04:22:02 29° NE 04:26:00 10° ESE visible
06 Dec 7.9 05:59:22 18° WNW 06:02:05 33° WSW 06:06:12 10° S visible
07 Dec 7.5 04:42:03 59° ENE 04:42:03 59° ENE 04:46:33 10° SE visible
07 Dec 8.9 06:19:23 11° WNW 06:21:37 15° WSW 06:24:15 10° SW visible
08 Dec 7.1 05:02:09 61° SW 05:02:09 61° SW 05:06:23 10° SSE visible
09 Dec 10.0 03:44:59 14° ESE 03:44:59 14° ESE 03:45:42 10° ESE visible
09 Dec 8.3 05:22:19 27° SW 05:22:19 27° SW 05:25:25 10° S visible
09 Dec 9.7 19:27:18 10° SSW 19:27:58 14° SSW 19:27:58 14° SSW visible
10 Dec 9.7 04:05:14 15° SE 04:05:14 15° SE 04:06:06 10° SE visible
10 Dec 9.3 05:42:34 11° SW 05:42:34 11° SW 05:43:00 10° SW visible
10 Dec 8.6 18:08:30 10° SSE 18:10:50 20° SE 18:10:50 20° SE visible
10 Dec 9.9 19:47:28 10° WSW 19:48:11 14° WSW 19:48:11 14° WSW visible
11 Dec 9.7 04:25:31 11° SSE 04:25:31 11° SSE 04:25:47 10° SSE visible
11 Dec 7.5 18:27:12 10° S 18:31:01 46° SE 18:31:01 46° SE visible
11 Dec 10.3 20:08:21 10° W 20:08:21 10° W 20:08:21 10° W visible
12 Dec 9.1 17:10:31 10° SE 17:11:53 11° ESE 17:13:14 10° E visible
12 Dec 7.2 18:46:49 10° SW 18:51:06 74° W 18:51:06 74° W visible
13 Dec 8.2 17:27:39 10° SSE 17:31:21 26° ESE 17:33:46 17° ENE visible
13 Dec 8.4 19:07:07 10° WSW 19:11:05 35° NW 19:11:05 35° NW visible
14 Dec 7.2 17:46:35 10° SSW 17:50:59 58° ESE 17:53:41 23° NE visible
14 Dec 9.4 19:28:11 10° W 19:31:00 19° NW 19:31:00 19° NW visible
